Location: *
(58.7167°N, 26.1833°E)
Time: 03:37:53
(UTC+00:00)

Cosmos 1455 Rocket - Pass Details

Date: 25 August 2019
Orbit: 605 x 630 km, 82.5° (Epoch: 21 October)

Event Time Altitude Azimuth Distance (km) Brightness Sun altitude
Exits shadow 21:46:55 55° 178° (S) 744 3.0 -20.4°
Maximum altitude 21:47:51 81° 100° (E) 630 2.9 -20.4°
Drops below altitude 10° 21:52:16 10° 15° (NNE) 1,995 6.7 -20.5°
Sets 21:54:31 0° 14° (NNE) 2,910 7.8 -20.5°
